EUTELSAT 117 WEST A

Last updated on Tue Oct 15 2024 00:02:39 GMT+0000 (Coordinated Universal Time)

1 39122U 13012A 24288.40257778 -.00000015 00000+0 00000+0 0 9993 2 39122 0.0619 71.3249 0002939 132.5237 207.7415 1.00271736 42309
UTC large
Height (km)
Speed (km/s)
/
Latitude / Longitude
Inclination (degrees)
Orbital Period (minutes)
Azimuth
Elevation
Range (km)
Doppler Factor

Next 0 passes for location: London (51.5072 / 0.1276)

Sorry there are no passes over London.